When you browse on this site, cookies collect data to enhance your experience and personalize the content and advertising you see.
Visit our Privacy Policy to learn more. By continuing to use the site, you agree to this use of cookies and data.
  • In Deutschland
  • Länderverzeichnis
  • Für 7 Tage
  • Wassertemperatur
  • Satellitenkarten
  • Wetterkarte
  • Widgets
  • user-avatar
    Anmelden

    Stündliche Wetter Witebsk

    Heute, 23 Juli, Dienstag

    Zeit Temperatur Niederschläge Wind Luftdruck Luftfeuchtigkeit
    00:00 +16°C° 3 mm 3 m/S 744 mmHg 98%
    01:00 +16°C° 3 mm 3 m/S 743 mmHg 98%
    02:00 +16°C° 3 mm 3 m/S 743 mmHg 98%
    03:00 +15°C° 3.8 mm 4 m/S 743 mmHg 98%
    04:00 +15°C° 3.8 mm 4 m/S 743 mmHg 97%
    05:00 +15°C° 3.8 mm 5 m/S 743 mmHg 97%
    06:00 +15°C° 1.6 mm 5 m/S 743 mmHg 97%
    07:00 +15°C° 1.6 mm 5 m/S 743 mmHg 96%
    08:00 +15°C° 1.6 mm 5 m/S 743 mmHg 96%
    09:00 +15°C° 0.6 mm 5 m/S 743 mmHg 96%
    10:00 +15°C° 0.6 mm 4 m/S 743 mmHg 95%
    11:00 +17°C° 0.6 mm 3 m/S 743 mmHg 94%
    12:00 +17°C° 0.2 mm 3 m/S 743 mmHg 92%
    13:00 +18°C° 0.2 mm 3 m/S 743 mmHg 91%
    14:00 +19°C° 0.2 mm 3 m/S 743 mmHg 89%
    15:00 +19°C° 0.2 mm 3 m/S 743 mmHg 86%
    16:00 +20°C° 0.2 mm 4 m/S 743 mmHg 84%
    17:00 +21°C° 0.2 mm 4 m/S 743 mmHg 82%
    18:00 +20°C° 0.1 mm 4 m/S 743 mmHg 84%
    19:00 +19°C° 0.1 mm 3 m/S 743 mmHg 86%
    20:00 +18°C° 0.1 mm 3 m/S 743 mmHg 88%
    21:00 +17°C° 0 mm 3 m/S 743 mmHg 90%
    22:00 +16°C° 0 mm 3 m/S 743 mmHg 92%
    23:00 +14°C° 0 mm 3 m/S 744 mmHg 94%

    Morgen, 24 Juli, Mittwoch

    Zeit Temperatur Niederschläge Wind Luftdruck Luftfeuchtigkeit
    00:00 +14°C° 0 mm 3 m/S 744 mmHg 95%
    01:00 +13°C° 0 mm 3 m/S 744 mmHg 95%
    02:00 +13°C° 0 mm 3 m/S 744 mmHg 96%
    03:00 +13°C° 0 mm 3 m/S 744 mmHg 95%
    04:00 +13°C° 0 mm 3 m/S 744 mmHg 95%
    05:00 +13°C° 0 mm 3 m/S 744 mmHg 94%
    06:00 +14°C° 0 mm 3 m/S 744 mmHg 89%
    07:00 +17°C° 0 mm 3 m/S 745 mmHg 85%
    08:00 +18°C° 0 mm 3 m/S 745 mmHg 80%
    09:00 +20°C° 0 mm 4 m/S 745 mmHg 73%
    10:00 +21°C° 0 mm 4 m/S 745 mmHg 66%
    11:00 +23°C° 0 mm 5 m/S 745 mmHg 59%
    12:00 +23°C° 0 mm 5 m/S 745 mmHg 58%
    13:00 +23°C° 0 mm 5 m/S 745 mmHg 58%
    14:00 +23°C° 0 mm 5 m/S 745 mmHg 57%
    15:00 +23°C° 0 mm 5 m/S 745 mmHg 60%
    16:00 +23°C° 0 mm 4 m/S 745 mmHg 64%
    17:00 +22°C° 0 mm 4 m/S 745 mmHg 67%
    18:00 +21°C° 0 mm 4 m/S 745 mmHg 70%
    19:00 +19°C° 0 mm 4 m/S 745 mmHg 72%
    20:00 +18°C° 0 mm 4 m/S 745 mmHg 75%
    21:00 +17°C° 0 mm 4 m/S 745 mmHg 78%
    22:00 +16°C° 0 mm 3 m/S 745 mmHg 81%
    23:00 +14°C° 0 mm 3 m/S 745 mmHg 84%

    übermorgen, 25 Juli, Donnerstag

    Zeit Temperatur Niederschläge Wind Luftdruck Luftfeuchtigkeit
    00:00 +13°C° 0 mm 3 m/S 745 mmHg 85%
    01:00 +13°C° 0 mm 3 m/S 745 mmHg 87%
    02:00 +12°C° 0 mm 3 m/S 745 mmHg 88%
    03:00 +13°C° 0 mm 3 m/S 745 mmHg 88%
    04:00 +13°C° 0 mm 3 m/S 745 mmHg 88%
    05:00 +13°C° 0 mm 3 m/S 745 mmHg 88%
    06:00 +14°C° 0 mm 3 m/S 745 mmHg 84%
    07:00 +17°C° 0 mm 3 m/S 745 mmHg 81%
    08:00 +18°C° 0 mm 3 m/S 745 mmHg 77%
    09:00 +19°C° 0.5 mm 3 m/S 745 mmHg 77%
    10:00 +19°C° 0.5 mm 3 m/S 745 mmHg 77%
    11:00 +20°C° 0.5 mm 3 m/S 745 mmHg 78%
    12:00 +20°C° 0.6 mm 4 m/S 745 mmHg 79%
    13:00 +20°C° 0.6 mm 4 m/S 744 mmHg 80%
    14:00 +20°C° 0.6 mm 4 m/S 744 mmHg 81%
    15:00 +19°C° 0.2 mm 4 m/S 744 mmHg 82%
    16:00 +19°C° 0.2 mm 4 m/S 744 mmHg 84%
    17:00 +19°C° 0.2 mm 4 m/S 744 mmHg 86%
    18:00 +18°C° 0.2 mm 3 m/S 744 mmHg 89%
    19:00 +17°C° 0.2 mm 3 m/S 744 mmHg 91%
    20:00 +17°C° 0.2 mm 3 m/S 744 mmHg 94%
    21:00 +16°C° 0.1 mm 3 m/S 744 mmHg 94%
    22:00 +16°C° 0.1 mm 3 m/S 744 mmHg 95%
    23:00 +14°C° 0.1 mm 3 m/S 744 mmHg 95%

    26 Juli, Freitag

    Zeit Temperatur Niederschläge Wind Luftdruck Luftfeuchtigkeit
    00:00 +14°C° 0 mm 3 m/S 745 mmHg 96%
    01:00 +14°C° 0 mm 3 m/S 745 mmHg 97%
    02:00 +14°C° 0 mm 4 m/S 745 mmHg 98%
    03:00 +15°C° 0 mm 4 m/S 745 mmHg 97%
    04:00 +15°C° 0 mm 4 m/S 745 mmHg 97%
    05:00 +16°C° 0 mm 5 m/S 745 mmHg 96%
    06:00 +17°C° 0 mm 4 m/S 745 mmHg 96%
    07:00 +17°C° 0 mm 4 m/S 746 mmHg 95%
    08:00 +18°C° 0 mm 4 m/S 746 mmHg 94%
    09:00 +19°C° 0.2 mm 5 m/S 746 mmHg 92%
    10:00 +19°C° 0.2 mm 5 m/S 746 mmHg 90%
    11:00 +20°C° 0.2 mm 5 m/S 747 mmHg 88%
    12:00 +21°C° 0.5 mm 5 m/S 746 mmHg 84%
    13:00 +22°C° 0.5 mm 5 m/S 746 mmHg 79%
    14:00 +23°C° 0.5 mm 5 m/S 746 mmHg 75%
    15:00 +23°C° 0.6 mm 5 m/S 746 mmHg 78%
    16:00 +23°C° 0.6 mm 4 m/S 746 mmHg 81%
    17:00 +22°C° 0.6 mm 4 m/S 746 mmHg 83%
    18:00 +21°C° 0.1 mm 4 m/S 746 mmHg 86%
    19:00 +20°C° 0.1 mm 3 m/S 747 mmHg 89%
    20:00 +19°C° 0.1 mm 3 m/S 747 mmHg 92%
    21:00 +19°C° 0 mm 3 m/S 747 mmHg 93%
    22:00 +18°C° 0 mm 3 m/S 747 mmHg 94%
    23:00 +18°C° 0 mm 3 m/S 747 mmHg 95%

    27 Juli, Samstag

    Zeit Temperatur Niederschläge Wind Luftdruck Luftfeuchtigkeit
    00:00 +18°C° 0 mm 3 m/S 747 mmHg 96%
    01:00 +17°C° 0 mm 3 m/S 747 mmHg 96%
    02:00 +17°C° 0 mm 3 m/S 747 mmHg 96%
    03:00 +17°C° 0 mm 3 m/S 747 mmHg 97%
    04:00 +17°C° 0 mm 3 m/S 747 mmHg 97%
    05:00 +17°C° 0 mm 2 m/S 747 mmHg 97%
    06:00 +18°C° 0 mm 3 m/S 747 mmHg 94%
    07:00 +20°C° 0 mm 3 m/S 747 mmHg 90%
    08:00 +21°C° 0 mm 3 m/S 747 mmHg 87%
    09:00 +23°C° 0 mm 4 m/S 747 mmHg 80%
    10:00 +25°C° 0 mm 4 m/S 747 mmHg 73%
    11:00 +27°C° 0 mm 5 m/S 747 mmHg 66%
    12:00 +27°C° 0 mm 4 m/S 747 mmHg 64%
    13:00 +28°C° 0 mm 4 m/S 747 mmHg 61%
    14:00 +28°C° 0 mm 4 m/S 747 mmHg 59%
    15:00 +28°C° 0 mm 3 m/S 746 mmHg 62%
    16:00 +28°C° 0 mm 3 m/S 746 mmHg 66%
    17:00 +28°C° 0 mm 2 m/S 746 mmHg 70%
    18:00 +26°C° 0 mm 3 m/S 746 mmHg 75%
    19:00 +24°C° 0 mm 3 m/S 746 mmHg 80%
    20:00 +21°C° 0 mm 3 m/S 746 mmHg 85%
    21:00 +20°C° 0 mm 3 m/S 746 mmHg 87%
    22:00 +20°C° 0 mm 2 m/S 746 mmHg 89%
    23:00 +19°C° 0 mm 2 m/S 746 mmHg 91%

    28 Juli, Sonntag

    Zeit Temperatur Niederschläge Wind Luftdruck Luftfeuchtigkeit
    00:00 +18°C° 0 mm 2 m/S 746 mmHg 92%
    01:00 +18°C° 0 mm 2 m/S 746 mmHg 93%
    02:00 +18°C° 0 mm 2 m/S 745 mmHg 94%
    03:00 +18°C° 0 mm 2 m/S 745 mmHg 93%
    04:00 +18°C° 0 mm 2 m/S 745 mmHg 93%
    05:00 +17°C° 0 mm 2 m/S 745 mmHg 93%
    06:00 +19°C° 0 mm 2 m/S 745 mmHg 88%
    07:00 +20°C° 0 mm 2 m/S 745 mmHg 83%
    08:00 +23°C° 0 mm 2 m/S 745 mmHg 78%
    09:00 +24°C° 0 mm 3 m/S 745 mmHg 75%
    10:00 +25°C° 0 mm 3 m/S 745 mmHg 71%
    11:00 +27°C° 0 mm 3 m/S 745 mmHg 68%
    12:00 +26°C° 0.3 mm 4 m/S 745 mmHg 70%
    13:00 +26°C° 0.3 mm 4 m/S 745 mmHg 73%
    14:00 +26°C° 0.3 mm 5 m/S 744 mmHg 75%
    15:00 +26°C° 0.1 mm 4 m/S 745 mmHg 73%
    16:00 +26°C° 0.1 mm 4 m/S 745 mmHg 72%
    17:00 +25°C° 0.1 mm 4 m/S 745 mmHg 70%
    18:00 +22°C° 0 mm 4 m/S 745 mmHg 72%
    19:00 +20°C° 0 mm 3 m/S 745 mmHg 74%
    20:00 +18°C° 0 mm 3 m/S 745 mmHg 75%
    21:00 +17°C° 0 mm 3 m/S 746 mmHg 77%
    22:00 +16°C° 0 mm 3 m/S 746 mmHg 78%
    23:00 +13°C° 0 mm 3 m/S 746 mmHg 79%
    Mehr zeigen